GW2923 Weather Reports


Display with metric or nautical units.
time (UTC)temp
F
wind
direction
speed
MPH
gust
MPH
rain 1hr
in
rain 24hr
in
rain mn
in
humidity
%
barometer
mb
20260508041541 36 230 1.0 5.0 0.00 0.00 0.00 92 1023.9
20260508041033 35 236 2.0 7.0 0.00 0.00 0.00 94 1023.8
20260508040534 34 249 3.0 7.0 0.00 0.00 0.00 95 1023.7
20260508040050 33 237 3.0 6.0 0.00 0.00 0.00 95 1023.6
20260508035535 30 212 2.0 4.0 0.00 0.00 0.00 94 1023.6
20260508035031 29 229 2.0 5.0 0.00 0.00 0.00 94 1023.6
20260508034550 27 243 2.0 5.0 0.00 0.00 0.00 93 1023.6
20260508034034 27 228 3.0 5.0 0.00 0.00 0.00 93 1023.5
20260508033534 26 211 1.0 3.0 0.00 0.00 0.00 92 1023.4
20260508033051 26 249 0.0 2.0 0.00 0.00 0.00 92 1023.4
20260508032537 25 220 0.0 2.0 0.00 0.00 0.00 92 1023.4
20260508032035 25 0 0.0 3.0 0.00 0.00 0.00 92 1023.2
20260508031544 25 232 1.0 3.0 0.00 0.00 0.00 91 1023.1
20260508031034 25 236 1.0 3.0 0.00 0.00 0.00 91 1023.2
20260508030534 24 226 1.0 4.0 0.00 0.00 0.00 91 1023.2
20260508030058 24 243 2.0 4.0 0.00 0.00 0.00 90 1023.1
20260508025533 24 239 1.0 3.0 0.00 0.00 0.00 90 1023.1
20260508025033 24 0 1.0 4.0 0.00 0.00 0.00 90 1023.0
20260508024615 24 220 1.0 4.0 0.00 0.00 0.00 90 1022.9
20260508024033 24 238 1.0 3.0 0.00 0.00 0.00 89 1022.8
20260508023532 24 228 0.0 1.0 0.00 0.00 0.00 89 1022.7
20260508023044 24 0 0.0 0.0 0.00 0.00 0.00 89 1022.7
20260508022531 24 0 0.0 0.0 0.00 0.00 0.00 89 1022.5
20260508022035 24 0 0.0 0.0 0.00 0.00 0.00 89 1022.6
20260508021555 24 0 0.0 0.0 0.00 0.00 0.00 89 1022.6
20260508021036 24 0 0.0 0.0 0.00 0.00 0.00 89 1022.6
20260508020534 24 0 0.0 0.0 0.00 0.00 0.00 89 1022.4
20260508020049 24 0 0.0 0.0 0.00 0.00 0.00 89 1022.5
20260508015534 24 0 0.0 0.0 0.00 0.00 0.00 89 1022.4
20260508015034 24 0 0.0 0.0 0.00 0.00 0.00 89 1022.4
20260508014548 24 0 0.0 0.0 0.00 0.00 0.00 89 1022.4
20260508014034 24 0 0.0 0.0 0.00 0.00 0.00 88 1022.3
20260508013533 24 0 0.0 0.0 0.00 0.00 0.00 88 1022.3
20260508013048 24 0 0.0 0.0 0.00 0.00 0.00 88 1022.3
20260508012533 24 0 0.0 0.0 0.00 0.00 0.00 88 1022.3
20260508012033 24 0 0.0 0.0 0.00 0.00 0.00 88 1022.2
20260508011547 24 0 0.0 1.0 0.00 0.00 0.00 88 1022.1
20260508011035 25 0 0.0 2.0 0.00 0.00 0.00 88 1022.1
20260508010535 25 0 0.0 2.0 0.00 0.00 0.00 88 1022.1
20260508010053 25 228 0.0 2.0 0.00 0.00 0.00 88 1022.0
20260508005535 25 0 0.0 2.0 0.00 0.00 0.00 87 1022.0
20260508005035 25 0 0.0 2.0 0.00 0.00 0.00 87 1022.0
20260508004554 25 0 0.0 2.0 0.00 0.00 0.00 87 1022.0
20260508004035 25 0 0.0 0.0 0.00 0.00 0.00 87 1022.0
20260508003534 25 0 0.0 0.0 0.00 0.00 0.00 87 1021.9
20260508003047 25 0 0.0 0.0 0.00 0.00 0.00 87 1021.9
20260508002533 25 0 0.0 0.0 0.00 0.00 0.00 87 1021.9
20260508002033 25 0 0.0 0.0 0.00 0.00 0.00 87 1021.9
20260508001550 25 0 0.0 0.0 0.00 0.00 0.00 86 1021.8
20260508001033 25 0 0.0 0.0 0.00 0.00 0.00 86 1021.7
20260508000534 25 0 0.0 0.0 0.00 0.00 0.00 85 1021.7
20260508000047 25 0 0.0 0.0 0.00 0.00 0.00 85 1021.6
20260507235531 25 0 0.0 0.0 0.00 0.00 0.00 85 1021.7
20260507235033 25 0 0.0 0.0 0.00 0.00 0.00 85 1021.6
20260507234542 25 0 0.0 0.0 0.00 0.00 0.00 85 1021.6
20260507234034 25 0 0.0 0.0 0.00 0.00 0.00 85 1021.5
20260507233533 25 0 0.0 0.0 0.00 0.00 0.00 85 1021.5
20260507233042 26 0 0.0 0.0 0.00 0.00 0.00 85 1021.5
20260507232534 26 0 0.0 0.0 0.00 0.00 0.00 84 1021.5
20260507232035 26 0 0.0 0.0 0.00 0.00 0.00 84 1021.4
20260507231543 26 0 0.0 0.0 0.00 0.00 0.00 84 1021.3
20260507231033 26 0 0.0 0.0 0.00 0.00 0.00 84 1021.2
20260507230533 26 0 0.0 0.0 0.00 0.00 0.00 84 1021.1
20260507230050 26 0 0.0 0.0 0.00 0.00 0.00 84 1021.2
20260507225534 26 0 0.0 0.0 0.00 0.00 0.00 84 1021.0
20260507225034 26 0 0.0 0.0 0.00 0.00 0.00 84 1020.9
20260507224547 27 0 0.0 0.0 0.00 0.00 0.00 84 1020.9
20260507224033 27 0 0.0 0.0 0.00 0.00 0.00 83 1020.9
20260507223533 27 0 0.0 0.0 0.00 0.00 0.00 83 1020.9
20260507223043 27 0 0.0 0.0 0.00 0.00 0.00 83 1020.8
20260507222534 27 0 0.0 0.0 0.00 0.00 0.00 83 1020.8
20260507222037 27 0 0.0 0.0 0.00 0.00 0.00 83 1020.7
20260507221544 27 0 0.0 0.0 0.00 0.00 0.00 83 1020.8
20260507221036 28 0 0.0 0.0 0.00 0.00 0.00 82 1020.7
20260507220538 28 0 0.0 0.0 0.00 0.00 0.00 81 1020.7
20260507220042 28 0 0.0 0.0 0.00 0.00 0.00 80 1020.7
20260507215534 28 0 0.0 0.0 0.00 0.00 0.00 80 1020.6
20260507215035 28 0 0.0 0.0 0.00 0.00 0.00 80 1020.5
20260507214549 28 0 0.0 0.0 0.00 0.00 0.00 79 1020.5
20260507214033 28 0 0.0 0.0 0.00 0.00 0.00 79 1020.2
20260507213533 29 0 0.0 0.0 0.00 0.00 0.00 78 1020.4
20260507213049 29 0 0.0 0.0 0.00 0.00 0.00 78 1020.3
20260507212534 29 0 0.0 0.0 0.00 0.00 0.00 79 1020.1
20260507212034 29 0 0.0 0.0 0.00 0.00 0.00 80 1020.0
20260507211545 29 0 0.0 0.0 0.00 0.00 0.00 79 1019.9
20260507211034 29 0 0.0 0.0 0.00 0.00 0.00 79 1019.9
20260507210533 30 0 0.0 0.0 0.00 0.00 0.00 78 1019.9
20260507210108 30 0 0.0 0.0 0.00 0.00 0.00 78 1019.8
20260507205534 30 0 0.0 0.0 0.00 0.00 0.00 77 1019.8
20260507205034 30 0 0.0 0.0 0.00 0.00 0.00 76 1019.7
20260507204546 30 0 0.0 0.0 0.00 0.00 0.00 77 1019.7
20260507204035 31 0 0.0 0.0 0.00 0.00 0.00 76 1019.6
20260507203535 31 0 0.0 0.0 0.00 0.00 0.00 76 1019.6
20260507203114 31 0 0.0 0.0 0.00 0.00 0.00 74 1019.6
20260507202537 31 0 0.0 0.0 0.00 0.00 0.00 74 1019.6
20260507202036 32 0 0.0 0.0 0.00 0.00 0.00 73 1019.5
20260507201538 32 0 0.0 0.0 0.00 0.00 0.00 72 1019.5
20260507201033 32 0 0.0 0.0 0.00 0.00 0.00 72 1019.4
20260507200533 33 0 0.0 0.0 0.00 0.00 0.00 71 1019.4
20260507200043 33 0 0.0 0.0 0.00 0.00 0.00 70 1019.3
20260507195541 34 0 0.0 0.0 0.00 0.00 0.00 68 1019.3
20260507195033 34 0 0.0 1.0 0.00 0.00 0.00 69 1019.2
20260507194538 35 0 0.0 2.0 0.00 0.00 0.00 69 1019.3
20260507194033 35 0 0.0 2.0 0.00 0.00 0.00 68 1019.2
20260507193532 35 266 0.0 2.0 0.00 0.00 0.00 67 1019.1
20260507193041 36 266 0.0 2.0 0.00 0.00 0.00 66 1019.1
20260507192534 37 0 0.0 2.0 0.00 0.00 0.00 63 1018.9
20260507192033 37 266 0.0 2.0 0.00 0.00 0.00 64 1018.9
20260507191550 38 0 0.0 2.0 0.00 0.00 0.00 64 1018.9
20260507191035 38 0 0.0 2.0 0.00 0.00 0.00 63 1018.8
20260507190532 38 0 0.0 3.0 0.00 0.00 0.00 63 1018.7
20260507190045 39 0 0.0 3.0 0.00 0.00 0.00 63 1018.7
20260507185531 39 0 1.0 3.0 0.00 0.00 0.00 64 1018.7
20260507185031 39 279 1.0 3.0 0.00 0.00 0.00 63 1018.6
20260507184542 39 320 0.0 3.0 0.00 0.00 0.00 63 1018.7
20260507184036 39 0 0.0 3.0 0.00 0.00 0.00 63 1018.6
20260507183534 40 0 0.0 3.0 0.00 0.00 0.00 62 1018.5
20260507183042 40 302 0.0 6.0 0.00 0.00 0.00 62 1018.4
20260507182536 41 0 1.0 6.0 0.00 0.00 0.00 60 1018.4
20260507182035 41 301 0.0 6.0 0.00 0.00 0.00 58 1018.3
20260507181542 42 285 1.0 6.0 0.00 0.00 0.00 56 1018.2
20260507181033 42 316 1.0 8.0 0.00 0.00 0.00 55 1018.2
20260507180532 42 320 2.0 8.0 0.00 0.00 0.00 56 1018.2
20260507180041 43 322 3.0 6.0 0.00 0.00 0.00 55 1018.1
20260507175538 43 357 3.0 7.0 0.00 0.00 0.00 53 1018.0
20260507175034 43 4 1.0 7.0 0.00 0.00 0.00 53 1017.9
20260507174547 44 280 2.0 7.0 0.00 0.00 0.00 51 1017.8
20260507174034 44 330 3.0 8.0 0.00 0.00 0.00 49 1017.8
20260507173532 44 0 2.0 10.0 0.00 0.00 0.00 47 1017.8
20260507173110 44 4 3.0 10.0 0.00 0.00 0.00 49 1017.7
20260507172530 45 247 3.0 9.0 0.00 0.00 0.00 49 1017.7
20260507172031 45 328 1.0 8.0 0.00 0.00 0.00 48 1017.6
20260507171543 45 259 2.0 12.0 0.00 0.00 0.00 47 1017.6
20260507171032 45 332 2.0 12.0 0.00 0.00 0.00 46 1017.5
20260507170531 46 311 3.0 12.0 0.00 0.00 0.00 44 1017.4
20260507170042 46 305 3.0 11.0 0.00 0.00 0.00 44 1017.4
20260507165530 46 334 2.0 11.0 0.00 0.00 0.00 44 1017.3
20260507165029 46 288 3.0 11.0 0.00 0.00 0.00 44 1017.2
20260507164539 46 328 6.0 11.0 0.00 0.00 0.00 44 1017.2
20260507164032 47 276 4.0 14.0 0.00 0.00 0.00 44 1017.3
20260507163531 47 297 5.0 14.0 0.00 0.00 0.00 44 1017.2
20260507163041 47 280 7.0 14.0 0.00 0.00 0.00 43 1017.2
20260507162535 47 269 5.0 15.0 0.00 0.00 0.00 42 1017.1
20260507162031 47 291 6.0 15.0 0.00 0.00 0.00 40 1017.0
20260507161551 47 333 3.0 15.0 0.00 0.00 0.00 41 1016.9
20260507161033 47 18 6.0 15.0 0.00 0.00 0.00 41 1016.9
20260507160530 48 336 1.0 15.0 0.00 0.00 0.00 41 1016.8
20260507160051 48 319 5.0 15.0 0.00 0.00 0.00 41 1016.9
20260507155534 48 268 4.0 15.0 0.00 0.00 0.00 42 1016.8
20260507155030 48 295 3.0 19.0 0.00 0.00 0.00 41 1016.8
20260507154542 48 315 12.0 19.0 0.00 0.00 0.00 40 1016.7
20260507154032 48 274 8.0 17.0 0.00 0.00 0.00 43 1016.7
20260507153532 49 280 5.0 17.0 0.00 0.00 0.00 42 1016.7
20260507153047 49 274 6.0 16.0 0.00 0.00 0.00 40 1016.6
20260507152533 49 286 7.0 14.0 0.00 0.00 0.00 42 1016.5
20260507152032 49 288 2.0 14.0 0.00 0.00 0.00 43 1016.5
20260507151544 49 317 5.0 14.0 0.00 0.00 0.00 41 1016.6
20260507151030 49 309 5.0 12.0 0.00 0.00 0.00 41 1016.6
20260507150531 49 250 5.0 14.0 0.00 0.00 0.00 39 1016.4
20260507150043 49 291 6.0 14.0 0.00 0.00 0.00 43 1016.4
20260507145531 49 284 8.0 14.0 0.00 0.00 0.00 46 1016.4
20260507145029 50 266 4.0 14.0 0.00 0.00 0.00 44 1016.3
20260507144539 49 272 7.0 15.0 0.00 0.00 0.00 43 1016.4
20260507144032 49 307 5.0 18.0 0.00 0.00 0.00 44 1016.3
20260507143534 49 288 11.0 18.0 0.00 0.00 0.00 43 1016.3
20260507143059 50 283 8.0 18.0 0.00 0.00 0.00 44 1016.2
20260507142535 49 258 12.0 18.0 0.00 0.00 0.00 45 1016.2
20260507142034 50 275 9.0 20.0 0.00 0.00 0.00 47 1016.3
20260507141601 49 259 10.0 20.0 0.00 0.00 0.00 46 1016.2
20260507141031 49 288 12.0 20.0 0.00 0.00 0.00 44 1016.2
20260507140534 49 278 10.0 20.0 0.00 0.00 0.00 46 1016.1
20260507140044 49 315 8.0 18.0 0.00 0.00 0.00 50 1016.1
20260507135534 49 271 12.0 18.0 0.00 0.00 0.00 46 1016.0
20260507135036 49 282 11.0 17.0 0.00 0.00 0.00 47 1015.9
20260507134544 50 256 8.0 18.0 0.00 0.00 0.00 47 1015.9
20260507134035 49 275 10.0 19.0 0.00 0.00 0.00 50 1015.9
20260507133534 50 272 13.0 19.0 0.00 0.00 0.00 48 1015.9
20260507133108 50 260 8.0 21.0 0.00 0.00 0.00 52 1015.8
20260507132536 50 258 10.0 21.0 0.00 0.00 0.00 48 1015.8
20260507132033 50 251 12.0 21.0 0.00 0.00 0.00 48 1015.8
20260507131545 51 253 8.0 19.0 0.00 0.00 0.00 49 1015.7
20260507131032 50 241 11.0 19.0 0.00 0.00 0.00 50 1015.7
20260507130536 51 258 11.0 19.0 0.00 0.00 0.00 48 1015.8
20260507130101 50 274 10.0 20.0 0.00 0.00 0.00 49 1015.8
20260507125531 50 252 12.0 20.0 0.00 0.00 0.00 49 1015.8
20260507125034 49 254 10.0 18.0 0.00 0.00 0.00 52 1015.7
20260507124548 47 291 9.0 18.0 0.00 0.00 0.00 53 1015.7
20260507124031 48 249 8.0 19.0 0.00 0.00 0.00 53 1015.7
20260507123536 48 251 11.0 21.0 0.00 0.00 0.00 51 1015.7
20260507123047 50 258 8.0 21.0 0.00 0.00 0.00 50 1015.6
20260507122534 50 241 13.0 21.0 0.00 0.00 0.00 50 1015.6
20260507122032 49 261 14.0 20.0 0.00 0.00 0.00 54 1015.6
20260507121542 48 279 10.0 17.0 0.00 0.00 0.00 53 1015.5
20260507121033 49 267 10.0 20.0 0.00 0.00 0.00 51 1015.5
20260507120533 50 229 10.0 23.0 0.00 0.00 0.00 53 1015.5
20260507120039 50 259 11.0 23.0 0.00 0.00 0.00 51 1015.6
20260507115534 50 261 14.0 23.0 0.00 0.00 0.00 50 1015.6
20260507115033 50 266 11.0 23.0 0.00 0.00 0.00 50 1015.6
20260507114559 50 205 12.0 23.0 0.00 0.00 0.00 50 1015.6
20260507114034 50 232 12.0 24.0 0.00 0.00 0.00 52 1015.5
20260507113606 49 266 15.0 24.0 0.00 0.00 0.00 52 1015.6
20260507113044 49 232 14.0 23.0 0.00 0.00 0.00 50 1015.6
20260507112533 50 230 14.0 23.0 0.00 0.00 0.00 52 1015.5
20260507112038 48 265 12.0 21.0 0.00 0.00 0.00 53 1015.6
20260507111542 47 254 12.0 24.0 0.00 0.00 0.00 53 1015.6
20260507111034 47 260 13.0 24.0 0.00 0.00 0.00 52 1015.6
20260507110534 48 283 10.0 18.0 0.00 0.00 0.00 50 1015.5
20260507110043 49 215 9.0 17.0 0.00 0.00 0.00 46 1015.4
20260507105532 49 269 10.0 17.0 0.00 0.00 0.00 48 1015.5
20260507105032 48 247 10.0 21.0 0.00 0.00 0.00 45 1015.4
20260507104548 47 251 12.0 21.0 0.00 0.00 0.00 46 1015.5
20260507104032 47 238 8.0 20.0 0.00 0.00 0.00 48 1015.5
20260507103537 47 266 8.0 21.0 0.00 0.00 0.00 48 1015.4
20260507103049 47 223 13.0 21.0 0.00 0.00 0.00 47 1015.4
20260507102532 48 247 11.0 20.0 0.00 0.00 0.00 46 1015.4
20260507102032 48 255 10.0 20.0 0.00 0.00 0.00 44 1015.3
20260507101546 49 241 10.0 19.0 0.00 0.00 0.00 42 1015.2
20260507101034 49 255 9.0 21.0 0.00 0.00 0.00 42 1015.2
20260507100534 48 201 11.0 25.0 0.00 0.00 0.00 42 1015.2
20260507100044 49 249 13.0 25.0 0.00 0.00 0.00 40 1015.2
20260507095532 49 210 15.0 24.0 0.00 0.00 0.00 38 1015.1
20260507095035 48 223 12.0 20.0 0.00 0.00 0.00 39 1015.0
20260507094553 48 266 13.0 19.0 0.00 0.00 0.00 37 1014.9
20260507094034 48 255 11.0 22.0 0.00 0.00 0.00 35 1014.9
20260507093533 49 249 10.0 22.0 0.00 0.00 0.00 36 1014.9
20260507093040 49 249 14.0 22.0 0.00 0.00 0.00 33 1014.8
20260507092533 50 236 11.0 21.0 0.00 0.00 0.00 33 1014.9
20260507092032 51 245 9.0 18.0 0.00 0.00 0.00 35 1014.9
20260507091542 51 243 10.0 18.0 0.00 0.00 0.00 32 1014.9
20260507091032 51 212 10.0 23.0 0.00 0.00 0.00 36 1014.9
20260507090534 49 278 10.0 23.0 0.00 0.00 0.00 35 1014.9
20260507090044 49 193 11.0 24.0 0.00 0.00 0.00 35 1015.0
20260507085531 48 228 14.0 25.0 0.00 0.00 0.00 34 1015.0
20260507085031 50 197 13.0 25.0 0.00 0.00 0.00 34 1014.9
20260507084542 51 245 10.0 23.0 0.00 0.00 0.00 35 1014.9
20260507084034 49 214 11.0 23.0 0.00 0.00 0.00 34 1014.9
20260507083534 50 189 6.0 16.0 0.00 0.00 0.00 33 1014.9
20260507083041 50 178 8.0 15.0 0.00 0.00 0.00 35 1014.9
20260507082531 50 169 5.0 13.0 0.00 0.00 0.00 34 1015.0
20260507082030 49 231 6.0 13.0 0.00 0.00 0.00 37 1014.9
20260507081549 48 198 7.0 12.0 0.00 0.00 0.00 37 1015.0
20260507081033 47 209 6.0 15.0 0.00 0.00 0.00 36 1015.0
20260507080529 47 176 8.0 16.0 0.00 0.00 0.00 36 1015.0
20260507080039 47 181 8.0 16.0 0.00 0.00 0.00 36 1015.0
20260507075532 47 174 5.0 17.0 0.00 0.00 0.00 36 1015.0
20260507075031 47 189 8.0 17.0 0.00 0.00 0.00 38 1015.0
20260507074548 48 184 6.0 14.0 0.00 0.00 0.00 36 1014.9
20260507074030 47 150 8.0 12.0 0.00 0.00 0.00 34 1015.0
20260507073531 47 208 6.0 14.0 0.00 0.00 0.00 36 1015.0
20260507073048 46 190 8.0 14.0 0.00 0.00 0.00 38 1015.0
20260507072531 45 144 7.0 13.0 0.00 0.00 0.00 39 1015.2
20260507072030 45 210 8.0 14.0 0.00 0.00 0.00 38 1015.2
20260507071542 46 208 8.0 15.0 0.00 0.00 0.00 37 1015.2
20260507071030 46 201 9.0 15.0 0.00 0.00 0.00 38 1015.2
20260507070530 46 209 6.0 12.0 0.00 0.00 0.00 38 1015.2
20260507070055 46 182 5.0 14.0 0.00 0.00 0.00 38 1015.1
20260507065533 45 176 7.0 14.0 0.00 0.00 0.00 38 1015.1
20260507065030 45 203 7.0 12.0 0.00 0.00 0.00 39 1015.0
20260507064553 45 214 6.0 11.0 0.00 0.00 0.00 40 1015.2
20260507064032 45 228 6.0 9.0 0.00 0.00 0.00 41 1015.2
20260507063530 45 222 5.0 9.0 0.00 0.00 0.00 39 1015.3
20260507063039 45 222 3.0 9.0 0.00 0.00 0.00 39 1015.2
20260507062530 45 182 4.0 9.0 0.00 0.00 0.00 40 1015.2
20260507062032 45 170 4.0 13.0 0.00 0.00 0.00 38 1015.2
20260507061545 45 143 7.0 13.0 0.00 0.00 0.00 38 1015.1
20260507061030 45 201 7.0 13.0 0.00 0.00 0.00 36 1015.1
20260507060530 45 188 5.0 12.0 0.00 0.00 0.00 39 1015.0
20260507060042 44 205 7.0 12.0 0.00 0.00 0.00 38 1015.0
20260507055531 45 140 5.0 12.0 0.00 0.00 0.00 40 1014.9
20260507055031 45 139 7.0 11.0 0.00 0.00 0.00 41 1014.9
20260507054542 44 168 7.0 11.0 0.00 0.00 0.00 42 1014.8
20260507054034 44 177 5.0 12.0 0.00 0.00 0.00 42 1014.8
20260507053531 44 172 7.0 12.0 0.00 0.00 0.00 41 1014.7
20260507053040 44 159 6.0 12.0 0.00 0.00 0.00 42 1014.7
20260507052530 44 130 5.0 12.0 0.00 0.00 0.00 45 1014.6
20260507052030 43 172 4.0 12.0 0.00 0.00 0.00 47 1014.7
20260507051540 42 152 6.0 12.0 0.00 0.00 0.00 46 1014.7
20260507051034 43 147 4.0 10.0 0.00 0.00 0.00 49 1014.8
20260507050534 42 170 4.0 10.0 0.00 0.00 0.00 53 1014.8
20260507050050 41 171 5.0 10.0 0.00 0.00 0.00 50 1014.7
20260507045535 41 157 5.0 11.0 0.00 0.00 0.00 53 1014.7
20260507045033 40 171 5.0 11.0 0.00 0.00 0.00 55 1014.8
20260507044557 39 175 5.0 9.0 0.00 0.00 0.00 55 1014.9
20260507044035 39 158 4.0 9.0 0.00 0.00 0.00 55 1014.8
20260507043534 38 143 5.0 9.0 0.00 0.00 0.00 57 1014.9
20260507043042 37 197 3.0 9.0 0.00 0.00 0.00 60 1014.8
20260507042533 36 160 4.0 10.0 0.00 0.00 0.00 61 1014.7
20260507042034 35 167 4.0 10.0 0.00 0.00 0.00 62 1014.7